[[{"header":{"parameterUnit":"m.s-1","parameterCategory":1,"la1":30.2991,"la2":30.254,"lo1":-89.0895,"lo2":-89.0444,"dy":0.0017,"dx":0.0017,"nx":28,"ny":28,"refTime":"2024-08-06T03:00:00:Z","depth":0,"parameterNumber":2,"parameterNumberName":"U-component_of_WINDS"},"data":[0,0,0,0,0,0,0,0,0,0,0,0,0,0,0,0,0,0,0,0,0,0,0,0,0,0,0,0,0,0,0,0,0,0,0,0,0,0,0,0,0,0,0,0,0,0,0,0,0,0,0,0,0,0,0,0,0,0,2.7832,2.7832,0,2.7858,2.7858,2.7859,2.7833,2.7832,2.7831,2.783,2.7858,2.786,2.7862,0,0,0,0,0,0,0,0,0,0,0,0,0,2.7763,2.7764,2.7832,2.7832,2.7832,2.7858,2.7858,2.7859,2.7833,2.7832,2.783,2.7829,2.7858,2.786,2.7862,0,0,0,0,0,0,0,0,0,0,0,0,0,2.7792,2.7765,2.7832,2.7823,2.7822,2.7858,2.7858,2.7859,2.7833,2.7832,2.783,2.7829,2.7857,2.786,2.7862,2.7909,0,0,2.787,2.7871,0,0,0,0,0,0,0,0,2.779,2.7794,2.7824,2.7823,2.7823,2.7841,2.7845,2.7876,2.7834,2.7829,2.783,2.7828,2.7854,2.7857,2.7865,2.791,2.7912,2.787,2.7872,2.7873,2.7874,0,0,0,0,0,0,0,2.7788,2.7793,2.7842,2.7824,2.7824,2.7819,2.7821,2.7851,2.785,2.7829,2.7827,2.7831,2.7853,2.7862,2.7865,2.7912,2.787,2.7872,2.7874,2.7875,2.8002,2.8003,0,0,0,0,0,0,2.7787,2.7791,2.7841,2.7843,2.7802,2.7821,2.7824,2.7836,2.7849,2.785,2.7832,2.7829,2.7859,2.7862,2.7866,2.7924,2.7873,2.7875,2.7877,2.8,2.8002,2.8004,0,0,0,0,0,0,2.7785,2.7791,2.784,2.7817,2.7823,2.7824,2.7838,2.7838,2.7847,2.7851,2.7852,2.7841,2.7858,2.7863,2.7899,2.7925,2.7876,2.7879,2.7998,2.8001,2.8003,2.804,0,0,0,0,0,0,2.7783,2.7791,2.7808,2.7817,2.7824,2.7872,2.784,2.7839,2.7851,2.7848,2.786,2.7861,2.7857,2.7896,2.7902,2.7928,2.7881,2.7995,2.7999,2.8002,2.8036,2.8043,2.8049,0,0,0,0,0,2.7781,2.7816,2.7808,2.7815,2.7845,2.7873,2.7877,2.7871,2.7853,2.7871,2.7875,2.786,2.7921,2.79,2.7906,2.7933,2.7994,2.7998,2.8002,2.8033,2.8042,2.8049,0,0,0,0,0,0,2.7809,2.7817,2.7809,2.7848,2.786,2.7869,2.789,2.788,2.7898,2.7894,2.7887,2.789,2.793,2.7935,2.7911,2.7982,2.7955,2.796,2.7976,2.7985,2.7991,2.7989,2.7883,0,0,0,0,0,2.782,2.7841,2.7848,2.7882,2.7889,2.7889,2.7901,2.7896,2.7908,2.7913,2.7919,2.7933,2.7956,2.797,2.7991,2.8037,2.8041,2.806,2.8066,2.8072,2.8077,2.8105,2.8114,2.8017,2.8017,2.8017,0,0,2.7842,2.7849,2.7863,2.7888,2.7897,2.7921,2.7893,2.7919,2.7937,2.7917,2.7953,2.7958,2.7973,2.8016,2.8035,2.8022,2.8104,2.8077,2.8081,2.8083,2.811,2.8119,2.8127,2.802,2.802,2.8019,0,0,2.7895,2.7902,2.7933,2.7943,2.7957,2.7957,2.7965,2.7976,2.7979,2.8015,2.8001,2.8024,2.8062,2.8074,2.8085,2.8148,2.8137,2.8155,2.8189,2.8217,2.8225,2.8231,2.8256,2.8265,2.816,2.816,2.816,0,2.7921,2.7956,2.795,2.7978,2.799,2.7974,2.8007,2.8017,2.8037,2.8047,2.8032,2.8082,2.8091,2.8137,2.8153,2.8162,2.8172,2.8153,2.8224,2.8231,2.8237,2.826,2.8269,2.8162,2.8162,2.8162,2.8162,0,2.7989,2.8014,2.8037,2.8058,2.8073,2.8103,2.8103,2.8119,2.8114,2.8117,2.8156,2.8166,2.819,2.8201,2.8195,2.8248,2.824,2.8225,2.8198,2.8249,2.8271,2.8279,2.8166,2.8165,2.8164,2.8164,0,0,2.8058,2.8078,2.8086,2.8097,2.8113,2.8133,2.8164,2.8188,2.8203,2.8219,2.8246,2.8281,2.8268,2.8281,2.8277,2.8301,2.8353,2.8283,2.8284,2.8297,2.8416,2.8428,2.8438,2.8346,2.8348,2.8349,2.8415,0,2.8113,2.8166,2.8163,2.8213,2.8237,2.8224,2.8252,2.8266,2.827,2.8293,2.8298,2.8324,2.8304,2.8312,2.8335,2.8342,2.8377,2.8337,2.8373,2.8375,2.8371,2.8449,2.8461,2.8522,2.8423,2.8425,2.8426,0,2.8184,2.8203,2.8256,2.8271,2.8282,2.8306,2.8329,2.8351,2.8368,2.837,2.8386,2.838,2.8414,2.8386,2.8434,2.8407,2.8423,2.8429,2.8431,2.8434,2.8403,2.8456,2.8541,2.8551,2.8439,2.8438,2.8437,0,2.8231,2.827,2.8308,2.8317,2.8336,2.8354,2.8363,2.8378,2.8394,2.8415,2.8426,2.8451,2.8465,2.8485,2.8487,2.8467,2.8537,2.8509,2.8541,2.8541,2.8556,2.8555,2.8646,2.8564,2.8564,2.8564,2.8564,0,2.8293,2.8327,2.833,2.8353,2.8391,2.8388,2.8427,2.8434,2.8449,2.8475,2.8465,2.849,2.849,2.8517,2.8518,2.856,2.8566,2.857,2.857,2.8571,2.8571,2.8581,2.8577,2.8567,2.8566,2.8566,2.8565,0,2.8352,2.8355,2.8396,2.8411,2.8416,2.8444,2.8458,2.8481,2.8486,2.8519,2.8527,2.8535,2.8566,2.857,2.8605,2.8607,2.8657,2.8652,2.8651,2.8651,2.8684,2.8681,2.8785,2.88,2.8707,2.8708,2.8709,0,2.8392,2.8418,2.8437,2.8453,2.8464,2.849,2.8507,2.8507,2.8525,2.8549,2.857,2.86,2.8623,2.8674,2.8684,2.8712,2.8709,2.8744,2.8713,2.8715,2.8712,2.8711,2.8715,2.875,2.8751,2.8751,2.8752,0,2.8463,2.8464,2.8488,2.8513,2.8534,2.8554,2.8573,2.8587,2.859,2.8612,2.8643,2.8662,2.87,2.8731,2.8759,2.877,2.8763,2.8762,2.8771,2.8773,2.8772,2.8775,2.8669,2.8759,2.8759,2.8758,2.8758,2.8757,2.8514,2.8538,2.8556,2.8584,2.8598,2.8617,2.8641,2.865,2.8676,2.8706,2.8705,2.8741,2.8761,2.8799,2.8813,2.8842,2.8831,2.8844,2.8847,2.8851,2.8855,2.8767,2.8847,2.8847,2.8847,2.8847,2.8846,0,2.8586,2.8598,2.8624,2.8651,2.8674,2.8665,2.8687,2.8707,2.8738,2.8758,2.8782,2.8821,2.8852,2.8865,2.8896,2.8918,2.8915,2.8926,2.8925,2.8928,2.8862,2.8852,2.8928,2.8928,2.8928,2.8928,2.8928,2.8928,2.8626,2.8666,2.867,2.8719,2.8731,2.8765,2.8779,2.8797,2.8813,2.8856,2.8882,2.8891,2.8909,2.8942,2.8971,2.8975,2.8988,2.9,2.9003,2.8941,2.8932,2.8925,2.8915,2.9003,2.9003,2.9066,2.9067,2.9067]},{"header":{"parameterUnit":"m.s-1","parameterCategory":1,"la1":30.2991,"la2":30.254,"lo1":-89.0895,"lo2":-89.0444,"dy":0.0017,"dx":0.0017,"nx":28,"ny":28,"refTime":"2024-08-06T03:00:00:Z","depth":0,"parameterNumber":3,"parameterNumberName":"V-component_of_WINDS"},"data":[0,0,0,0,0,0,0,0,0,0,0,0,0,0,0,0,0,0,0,0,0,0,0,0,0,0,0,0,0,0,0,0,0,0,0,0,0,0,0,0,0,0,0,0,0,0,0,0,0,0,0,0,0,0,0,0,0,0,-2.0069,-2.0069,0,-1.9988,-1.9987,-1.9986,-2.001,-2.0012,-2.0014,-2.0015,-1.9923,-1.9919,-1.9915,0,0,0,0,0,0,0,0,0,0,0,0,0,-2.0238,-2.0235,-2.007,-2.0069,-2.0068,-1.9988,-1.9987,-1.9986,-2.001,-2.0012,-2.0014,-2.0016,-1.9924,-1.992,-1.9915,0,0,0,0,0,0,0,0,0,0,0,0,0,-2.0161,-2.0234,-2.007,-2.007,-2.0069,-1.9988,-1.9987,-1.9986,-2.0009,-2.0012,-2.0015,-2.0017,-1.9926,-1.992,-1.9914,-1.9825,0,0,-1.9896,-1.9893,0,0,0,0,0,0,0,0,-2.0166,-2.0155,-2.0071,-2.007,-2.0069,-2.0012,-2.0013,-1.9932,-2.0009,-2.0032,-2.0015,-2.0018,-1.995,-1.9942,-1.9921,-1.9821,-1.9817,-1.9895,-1.9891,-1.9889,-1.9887,0,0,0,0,0,0,0,-2.0171,-2.0159,-2.0037,-2.007,-2.0068,-2.0072,-2.0064,-1.9997,-1.9977,-2.003,-2.0032,-2.0022,-1.995,-1.9927,-1.9919,-1.9816,-1.9895,-1.989,-1.9886,-1.9884,-1.9636,-1.9634,0,0,0,0,0,0,-2.0178,-2.0163,-2.004,-2.0035,-2.0125,-2.0067,-2.0058,-2.0028,-1.9978,-1.9973,-2.002,-2.0024,-1.9936,-1.9926,-1.9916,-1.9807,-1.9889,-1.9883,-1.988,-1.9639,-1.9636,-1.9633,0,0,0,0,0,0,-2.0182,-2.0167,-2.0043,-2.0099,-2.0084,-2.0061,-2.0027,-2.0025,-2.0002,-1.9971,-1.9966,-2.0001,-1.9938,-1.9924,-1.9848,-1.9804,-1.988,-1.9875,-1.9643,-1.9638,-1.9634,-1.9588,0,0,0,0,0,0,-2.0186,-2.0168,-2.0136,-2.0098,-2.0081,-1.9978,-2.0024,-2.0021,-1.9992,-1.9996,-1.9951,-1.9946,-1.9939,-1.9857,-1.9842,-1.9797,-1.987,-1.9646,-1.9641,-1.9636,-1.9594,-1.9583,-1.9574,0,0,0,0,0,-2.0192,-2.0125,-2.0134,-2.0119,-2.004,-1.9976,-1.9965,-1.996,-1.9989,-1.9954,-1.9935,-1.9948,-1.9812,-1.9849,-1.9832,-1.9784,-1.9649,-1.9642,-1.9636,-1.9598,-1.9585,-1.9574,0,0,0,0,0,0,-2.0155,-2.012,-2.013,-2.0049,-2.0015,-1.998,-1.9937,-1.9947,-1.9903,-1.9908,-1.9901,-1.9891,-1.9812,-1.9791,-1.9833,-1.9695,-1.9734,-1.9724,-1.9711,-1.9698,-1.9689,-1.9694,-1.9865,0,0,0,0,0,-2.0138,-2.0091,-2.0062,-1.9993,-1.9976,-1.996,-1.9931,-1.9931,-1.9895,-1.988,-1.9854,-1.9816,-1.9765,-1.9731,-1.9682,-1.9592,-1.9581,-1.9551,-1.9541,-1.9533,-1.9523,-1.9471,-1.9457,-1.9611,-1.9611,-1.9611,0,0,-2.01,-2.0076,-2.0046,-1.9985,-1.9959,-1.9907,-1.9947,-1.9892,-1.9853,-1.987,-1.9796,-1.9777,-1.9734,-1.9649,-1.9611,-1.9629,-1.9479,-1.9525,-1.9519,-1.9513,-1.9463,-1.9448,-1.9435,-1.9606,-1.9607,-1.9608,0,0,-2.0006,-1.9984,-1.9923,-1.9897,-1.9858,-1.9848,-1.9833,-1.9797,-1.9785,-1.9712,-1.9723,-1.9676,-1.9588,-1.9557,-1.9529,-1.9424,-1.9433,-1.9408,-1.9355,-1.9304,-1.9292,-1.9281,-1.924,-1.9226,-1.9399,-1.9399,-1.9399,0,-1.9963,-1.9889,-1.989,-1.9833,-1.9805,-1.9822,-1.9758,-1.9732,-1.9678,-1.9657,-1.968,-1.957,-1.9542,-1.945,-1.9424,-1.9402,-1.9383,-1.9411,-1.9294,-1.9283,-1.9273,-1.9234,-1.9219,-1.9396,-1.9396,-1.9396,-1.9397,0,-1.9837,-1.9786,-1.9741,-1.9691,-1.9658,-1.9598,-1.9587,-1.9553,-1.9556,-1.9542,-1.9466,-1.9434,-1.9378,-1.9357,-1.9358,-1.9264,-1.9276,-1.9297,-1.9335,-1.9255,-1.9218,-1.9203,-1.9391,-1.9393,-1.9393,-1.9394,0,0,-1.9714,-1.9667,-1.965,-1.9627,-1.9586,-1.9545,-1.9485,-1.9433,-1.9403,-1.9366,-1.9313,-1.9239,-1.9258,-1.9226,-1.9224,-1.918,-1.9095,-1.9206,-1.9205,-1.9183,-1.8985,-1.8968,-1.8951,-1.9103,-1.91,-1.9098,-1.8988,0,-1.9614,-1.9511,-1.951,-1.9414,-1.9365,-1.9381,-1.9329,-1.9296,-1.9282,-1.9236,-1.922,-1.9166,-1.9197,-1.9178,-1.9136,-1.9115,-1.9055,-1.9123,-1.9049,-1.9047,-1.9056,-1.8932,-1.8913,-1.8811,-1.8974,-1.8971,-1.897,0,-1.9482,-1.9443,-1.9343,-1.9309,-1.9288,-1.9241,-1.9193,-1.915,-1.9113,-1.9105,-1.9071,-1.9076,-1.9011,-1.9055,-1.8965,-1.9011,-1.8981,-1.8967,-1.8963,-1.8952,-1.9001,-1.8915,-1.8779,-1.8762,-1.8948,-1.8949,-1.8951,0,-1.9398,-1.9321,-1.925,-1.923,-1.9189,-1.9156,-1.9136,-1.9102,-1.9071,-1.9028,-1.9007,-1.8957,-1.8928,-1.8888,-1.8877,-1.8911,-1.8786,-1.8829,-1.8774,-1.8774,-1.8744,-1.8746,-1.8598,-1.8731,-1.8731,-1.8732,-1.8732,0,-1.9284,-1.9221,-1.9212,-1.9168,-1.9098,-1.9097,-1.9026,-1.9009,-1.8979,-1.893,-1.8941,-1.8894,-1.8885,-1.8835,-1.8827,-1.8751,-1.8739,-1.8729,-1.8726,-1.8726,-1.8726,-1.8703,-1.8708,-1.8728,-1.8729,-1.8729,-1.873,0,-1.9177,-1.9169,-1.9092,-1.9061,-1.9051,-1.9,-1.8972,-1.8928,-1.8917,-1.8854,-1.884,-1.882,-1.8762,-1.8749,-1.868,-1.8674,-1.8583,-1.859,-1.8596,-1.8595,-1.854,-1.8544,-1.8369,-1.8344,-1.8498,-1.8496,-1.8495,0,-1.9103,-1.9055,-1.9019,-1.8989,-1.8968,-1.8919,-1.8888,-1.8885,-1.8851,-1.8805,-1.8766,-1.8711,-1.8666,-1.8572,-1.8549,-1.8496,-1.8499,-1.8441,-1.849,-1.8491,-1.8493,-1.8495,-1.8489,-1.843,-1.8429,-1.8428,-1.8426,0,-1.8971,-1.897,-1.8926,-1.888,-1.8843,-1.8806,-1.877,-1.8744,-1.8736,-1.8697,-1.864,-1.8605,-1.8536,-1.8478,-1.8425,-1.8402,-1.8411,-1.8412,-1.8396,-1.8392,-1.8397,-1.839,-1.8567,-1.8415,-1.8416,-1.8417,-1.8417,-1.8418,-1.8875,-1.8833,-1.8801,-1.8751,-1.8725,-1.8692,-1.865,-1.8634,-1.8587,-1.8531,-1.8533,-1.8469,-1.8431,-1.8361,-1.8335,-1.8283,-1.83,-1.8278,-1.8271,-1.8265,-1.8258,-1.8409,-1.8274,-1.8274,-1.8274,-1.8275,-1.8275,0,-1.8741,-1.8722,-1.8677,-1.8628,-1.8588,-1.8605,-1.8567,-1.8531,-1.8476,-1.8442,-1.8398,-1.8331,-1.8276,-1.825,-1.8195,-1.8158,-1.816,-1.8143,-1.8144,-1.8137,-1.8247,-1.8265,-1.8142,-1.8142,-1.8142,-1.8142,-1.8142,-1.8142,-1.8667,-1.8595,-1.859,-1.8505,-1.8486,-1.8426,-1.8402,-1.837,-1.8343,-1.8269,-1.8224,-1.8209,-1.8177,-1.812,-1.8069,-1.8063,-1.804,-1.8019,-1.8014,-1.8117,-1.813,-1.8143,-1.8159,-1.8016,-1.8015,-1.7908,-1.7907,-1.7907]}]]